sat.trackr.live / text

‹ back to catalog

PTD-R (TYVAK-0127)

NORAD 60523 · 2024-149BH

PAYLOAD ACTIVE UNKNOWN

§ Identity

Operator
Country
US
Launch date
2024-08-16
Launch site
AFWTR
Launch vehicle
Mass (kg)
RCS (m²)

External: N2YO · Heavens-Above · Gunter

§ Orbital elements

Epoch: 2026-05-25T05:27:01.199808Z

Period
90.46 min
Inclination
97.3780°
Eccentricity
0.0002875
Mean motion
15.91905521 rev/d
Perigee alt
295.0 km
Apogee alt
298.9 km
Semi-major
6,675.1 km
B*
6.9518e-4
RAAN
243.8972°
Arg perigee
249.8734°
Mean anomaly
110.2231°
Rev number
9,976

§ Raw data

PTD-R (TYVAK-0127)1 60523U 24149BH  26145.22709722  .00227115  21261-4  69518-3 0  99912 60523  97.3780 243.8972 0002875 249.8734 110.2231 15.91905521 99765

JSON: /api/v1/satellites/60523 · /tle

For live sub-satellite position, see the globe view (requires WebGL).

§ Visibility from observer

Set your observer location to see the next 7 days of passes ≥ 10°. The values pass through the URL so the page stays shareable.

No JS? Fill the form by hand. The geolocation button needs JavaScript.

§ Radio — SatNOGS DB

ModeDescriptionDownlinkUplink
FSK Mode U - FSK9k6 401.205 MHz
BPSK S-band telemetry 2.213 GHz

2 transmitters · refreshed weekly from db.satnogs.org